Вернуться в каталог

STARLINK-11505

АктивенСвязьVLEO
NORAD 62469·PAYLOAD·🇺🇸 United States

Запущен Dec 31, 2024 с Cape Canaveral Space Force Station

Loading…

Ближайшие Пролёты (ближайшие 24 часа)

TLE

СвежийSource: CelesTrak SupGP

Эпоха: Sep 14, 2026, 20:47 UTC

1 62469C 24254H   26257.86645833 -.00026440  00000+0 -20537-3 0  2573
2 62469  43.0003 162.5497 0001479 266.8954 155.0127 15.70850771    17

Отслеживайте STARLINK-11505 в реальном времени с AllMySat

Download on the App Store